Tracking 33744 objects as of 14-Apr-2026
HD Live streaming from Space Station
objects crossing your sky now

STARLINK-34342

Track STARLINK-34342 now!
10-day predictions
STARLINK-34342 is classified as:


NORAD ID: 64271
Int'l Code: 2025-120R
Perigee: 481.0 km
Apogee: 483.6 km
Inclination: 53.2 °
Period: 94.1 minutes
Semi major axis: 6853 km
RCS: Unknown
Launch date: June 4, 2025
Source: United States (US)
Launch site: AIR FORCE WESTERN TEST RANGE (AFWTR)
Your satellite tracking list
Your tracking list is empty




NASA's NSSDC Master Catalog

Two Line Element Set (TLE):
1 64271U 25120R   26104.53817783  .00015292  00000-0  52714-3 0  9996
2 64271  53.1584 310.2564 0001884  80.1320 279.9893 15.30213514 49357
Source of the keplerian elements: AFSPC